Location: Alafon
(8.4500°N, 4.2333°E)
Time: 09:51:04
(UTC+00:00)

Transit 4A - All Passes

Search period start: 31 July 2021 00:00
Search period end: 10 August 2021 00:00
Orbit: 872 x 972 km, 66.8° (Epoch: 30 July)

Date Brightness Start Highest point End Pass type
(mag) Time Alt. Az. Time Alt. Az. Time Alt. Az.
31 Jul - 00:01:50 10° W 00:04:11 12° WNW 00:06:30 10° NW night (unlit)
31 Jul - 09:18:58 10° N 09:24:21 35° ENE 09:29:52 10° SE daylight
31 Jul - 11:06:12 10° WNW 11:10:24 20° WSW 11:14:42 10° SSW daylight
31 Jul - 22:21:06 10° SSW 22:27:13 90° E 22:33:08 10° NNE night (unlit)
01 Aug - 09:27:43 10° N 09:33:37 60° ENE 09:39:40 10° SSE daylight
01 Aug - 11:18:26 10° W 11:19:39 11° WSW 11:20:51 10° WSW daylight
01 Aug - 20:48:17 10° SE 20:50:27 12° ESE 20:52:34 10° E night (unlit)
01 Aug - 22:30:34 10° SW 22:36:28 53° WNW 22:42:12 10° N night (unlit)
02 Aug - 09:36:53 10° NNW 09:42:52 81° WSW 09:49:03 10° SSE daylight
02 Aug - 20:55:10 10° SSE 20:59:41 22° ESE 21:04:06 10° ENE night (unlit)
02 Aug - 22:40:29 10° SW 22:45:44 31° WNW 22:50:53 10° N night (unlit)
03 Aug - 08:02:49 10° NE 08:05:55 14° ENE 08:09:04 10° E daylight
03 Aug - 09:46:22 10° NW 09:52:06 47° WSW 09:58:01 10° S daylight
03 Aug - 21:03:23 10° S 21:08:55 37° ESE 21:14:18 10° NE night (unlit)
03 Aug - 22:51:06 10° WSW 22:55:03 18° WNW 22:58:57 10° NNW night (unlit)
04 Aug - 08:10:26 10° NNE 08:15:15 25° ENE 08:20:09 10° ESE daylight
04 Aug - 09:56:18 10° NW 10:01:21 28° WSW 10:06:30 10° SSW daylight
04 Aug - 21:12:09 10° S 21:18:09 64° ESE 21:24:00 10° NNE night (unlit)
05 Aug - 08:18:55 10° N 08:24:33 42° ENE 08:30:19 10° SE daylight
05 Aug - 10:07:01 10° WNW 10:10:35 16° WSW 10:14:12 10° SW daylight
05 Aug - 21:21:20 10° SSW 21:27:23 75° WNW 21:33:17 10° NNE night (unlit)
06 Aug - 08:27:49 10° NNW 08:33:48 73° ENE 08:39:58 10° SSE daylight
06 Aug - 19:47:21 10° SE 19:50:37 15° ESE 19:53:50 10° ENE night (unlit)
06 Aug - 21:30:57 10° SW 21:36:39 43° WNW 21:42:13 10° N night (unlit)
07 Aug - 08:37:05 10° NNW 08:43:03 68° WSW 08:49:12 10° SSE daylight
07 Aug - 19:54:56 10° SSE 19:59:52 26° ESE 20:04:42 10° NE night (unlit)
07 Aug - 21:41:04 10° WSW 21:45:55 25° WNW 21:50:42 10° NNW night (unlit)
08 Aug - 07:02:14 10° NNE 07:06:09 18° ENE 07:10:05 10° ESE daylight
08 Aug - 08:46:43 10° NW 08:52:17 39° WSW 08:58:00 10° S daylight
08 Aug - 20:03:21 10° S 20:09:05 45° ESE 20:14:41 10° NE night (unlit)
08 Aug - 21:52:06 10° W 21:55:15 15° WNW 21:58:25 10° NW night (unlit)
09 Aug - 07:10:16 10° N 07:15:28 30° ENE 07:20:46 10° SE daylight
09 Aug - 08:56:52 10° WNW 09:01:31 23° WSW 09:06:17 10° SSW daylight
09 Aug - 20:12:17 10° SSW 20:18:20 78° ESE 20:24:13 10° NNE night (unlit)
